S-NET B

Last updated on July 6, 2021, 3:39 p.m. UTC

1 43187U 18014H   21187.00415453  .00000298  00000-0  30854-4 0  9991
2 43187  97.6757  94.2239 0011447  26.2861 333.8939 14.97076832187075
UTC
Height (km)
Latitude
Longitude
Inclination
Orbital Period
UTC large
Height (km)
Speed (km/s)
/
Latitude / Longitude
Inclination (degrees)
Orbital Period (minutes)
Azimuth
Elevation
Range (km)
Doppler Factor
iOS Compass Heading
iOS Angle